Tracking 31027 objects as of 19-Jul-2025
HD Live streaming from Space Station
objects crossing your sky now

STARLINK-31353

Track STARLINK-31353 now!
10-day predictions
STARLINK-31353 is classified as:


NORAD ID: 58980
Int'l Code: 2024-031R
Perigee: 481.4 km
Apogee: 483.3 km
Inclination: 53.2 °
Period: 94.1 minutes
Semi major axis: 6853 km
RCS: Unknown
Launch date: February 15, 2023
Source: United States (US)
Launch site: AIR FORCE WESTERN TEST RANGE (AFWTR)
Your satellite tracking list
STARLINK-31611
Track 1 satellite(s)




NASA's NSSDC Master Catalog

Two Line Element Set (TLE):
1 58980U 24031R   25199.54955316 -.00001418  00000-0 -35777-4 0  9993
2 58980  53.1613 304.3698 0001378  95.4810 264.6348 15.30194733 80669
Source of the keplerian elements: AFSPC